When you browse on this site, cookies collect data to enhance your experience and personalize the content and advertising you see.
Visit our Privacy Policy to learn more. By continuing to use the site, you agree to this use of cookies and data.
  • In Czech Republic
  • List of Countries
  • For 7 days
  • Water Temperature
  • Weather Map
  • Weather Widgets
  • user-avatar
    Login

    Hourly Weather Santiago del Estero

    Today, 25 January, Saturday

    Time Temperature Precipitation Wind Pressure Humidity
    00:00 +26°C° 0 mm 3 mps 740 mmHg 47%
    01:00 +26°C° 0 mm 3 mps 740 mmHg 52%
    02:00 +25°C° 0 mm 2 mps 739 mmHg 66%
    03:00 +24°C° 0 mm 2 mps 739 mmHg 67%
    04:00 +24°C° 0 mm 2 mps 739 mmHg 69%
    05:00 +24°C° 0 mm 2 mps 740 mmHg 70%
    06:00 +26°C° 0 mm 2 mps 740 mmHg 64%
    07:00 +27°C° 0 mm 3 mps 741 mmHg 58%
    08:00 +29°C° 0 mm 3 mps 742 mmHg 51%
    09:00 +31°C° 0 mm 3 mps 741 mmHg 44%
    10:00 +35°C° 0 mm 3 mps 741 mmHg 36%
    11:00 +37°C° 0 mm 2 mps 741 mmHg 29%
    12:00 +38°C° 0 mm 2 mps 741 mmHg 26%
    13:00 +39°C° 0 mm 2 mps 740 mmHg 23%
    14:00 +41°C° 0 mm 2 mps 739 mmHg 20%
    15:00 +41°C° 0 mm 2 mps 739 mmHg 20%
    16:00 +41°C° 0 mm 2 mps 738 mmHg 19%
    17:00 +42°C° 0 mm 3 mps 737 mmHg 19%
    18:00 +38°C° 0 mm 3 mps 738 mmHg 22%
    19:00 +36°C° 0 mm 3 mps 738 mmHg 26%
    20:00 +33°C° 0 mm 4 mps 738 mmHg 29%
    21:00 +31°C° 0 mm 3 mps 739 mmHg 32%
    22:00 +30°C° 0 mm 3 mps 739 mmHg 35%
    23:00 +29°C° 0 mm 3 mps 740 mmHg 38%

    Tomorrow, 26 January, Sunday

    Time Temperature Precipitation Wind Pressure Humidity
    00:00 +28°C° 0 mm 3 mps 739 mmHg 41%
    01:00 +28°C° 0 mm 3 mps 739 mmHg 43%
    02:00 +27°C° 0 mm 2 mps 739 mmHg 46%
    03:00 +27°C° 0 mm 2 mps 738 mmHg 47%
    04:00 +27°C° 0 mm 3 mps 738 mmHg 48%
    05:00 +26°C° 0 mm 3 mps 738 mmHg 50%
    06:00 +28°C° 0 mm 3 mps 739 mmHg 47%
    07:00 +29°C° 0 mm 4 mps 739 mmHg 43%
    08:00 +32°C° 0 mm 4 mps 740 mmHg 40%
    09:00 +34°C° 0 mm 4 mps 740 mmHg 34%
    10:00 +37°C° 0 mm 4 mps 739 mmHg 29%
    11:00 +41°C° 0 mm 4 mps 739 mmHg 23%
    12:00 +42°C° 0 mm 4 mps 739 mmHg 20%
    13:00 +43°C° 0 mm 4 mps 738 mmHg 17%
    14:00 +45°C° 0 mm 4 mps 737 mmHg 14%
    15:00 +45°C° 0 mm 4 mps 737 mmHg 14%
    16:00 +45°C° 0 mm 4 mps 736 mmHg 14%
    17:00 +45°C° 0 mm 4 mps 736 mmHg 14%
    18:00 +42°C° 0 mm 4 mps 736 mmHg 16%
    19:00 +39°C° 0 mm 3 mps 737 mmHg 18%
    20:00 +36°C° 0 mm 3 mps 737 mmHg 20%
    21:00 +35°C° 0 mm 3 mps 738 mmHg 24%
    22:00 +35°C° 0 mm 3 mps 739 mmHg 27%
    23:00 +34°C° 0 mm 4 mps 740 mmHg 31%

    Day after tomorrow, 27 January, Monday

    Time Temperature Precipitation Wind Pressure Humidity
    00:00 +33°C° 0 mm 4 mps 740 mmHg 36%
    01:00 +32°C° 0 mm 5 mps 740 mmHg 42%
    02:00 +29°C° 0 mm 6 mps 740 mmHg 47%
    03:00 +29°C° 0 mm 5 mps 740 mmHg 47%
    04:00 +29°C° 0 mm 4 mps 741 mmHg 48%
    05:00 +28°C° 0 mm 3 mps 741 mmHg 48%
    06:00 +29°C° 0 mm 2 mps 741 mmHg 46%
    07:00 +31°C° 0 mm 2 mps 742 mmHg 43%
    08:00 +32°C° 0 mm 1 mps 742 mmHg 41%
    09:00 +33°C° 0 mm 1 mps 742 mmHg 39%
    10:00 +34°C° 0 mm 1 mps 742 mmHg 36%
    11:00 +36°C° 0 mm 2 mps 743 mmHg 33%
    12:00 +37°C° 0 mm 2 mps 742 mmHg 30%
    13:00 +39°C° 0 mm 2 mps 742 mmHg 27%
    14:00 +40°C° 0 mm 2 mps 741 mmHg 24%
    15:00 +38°C° 0 mm 3 mps 741 mmHg 29%
    16:00 +36°C° 0 mm 5 mps 740 mmHg 34%
    17:00 +34°C° 0 mm 7 mps 740 mmHg 40%
    18:00 +33°C° 0 mm 6 mps 740 mmHg 41%
    19:00 +32°C° 0 mm 5 mps 740 mmHg 42%
    20:00 +30°C° 0 mm 3 mps 740 mmHg 43%
    21:00 +29°C° 0 mm 3 mps 741 mmHg 44%
    22:00 +29°C° 0 mm 2 mps 741 mmHg 45%
    23:00 +28°C° 0 mm 2 mps 741 mmHg 46%

    28 January, Tuesday

    Time Temperature Precipitation Wind Pressure Humidity
    00:00 +28°C° 0 mm 2 mps 741 mmHg 48%
    01:00 +27°C° 0 mm 2 mps 740 mmHg 51%
    02:00 +26°C° 0 mm 2 mps 740 mmHg 53%
    03:00 +26°C° 0 mm 1 mps 740 mmHg 54%
    04:00 +25°C° 0 mm 1 mps 740 mmHg 56%
    05:00 +23°C° 0 mm 0 mps 740 mmHg 58%
    06:00 +26°C° 0 mm 1 mps 740 mmHg 53%
    07:00 +28°C° 0 mm 1 mps 740 mmHg 49%
    08:00 +30°C° 0 mm 1 mps 740 mmHg 45%
    09:00 +32°C° 0 mm 2 mps 740 mmHg 41%
    10:00 +34°C° 0 mm 2 mps 740 mmHg 37%
    11:00 +36°C° 0 mm 2 mps 739 mmHg 32%
    12:00 +37°C° 0 mm 3 mps 738 mmHg 30%
    13:00 +39°C° 0 mm 3 mps 737 mmHg 29%
    14:00 +40°C° 0 mm 3 mps 736 mmHg 27%
    15:00 +40°C° 0 mm 3 mps 736 mmHg 27%
    16:00 +40°C° 0 mm 4 mps 735 mmHg 27%
    17:00 +40°C° 0 mm 4 mps 734 mmHg 27%
    18:00 +37°C° 0 mm 4 mps 734 mmHg 32%
    19:00 +35°C° 0 mm 5 mps 734 mmHg 38%
    20:00 +33°C° 0 mm 5 mps 734 mmHg 43%
    21:00 +32°C° 0 mm 5 mps 735 mmHg 46%
    22:00 +30°C° 0 mm 4 mps 735 mmHg 50%
    23:00 +29°C° 0 mm 4 mps 735 mmHg 53%

    29 January, Wednesday

    Time Temperature Precipitation Wind Pressure Humidity
    00:00 +28°C° 0 mm 4 mps 735 mmHg 54%
    01:00 +28°C° 0 mm 3 mps 734 mmHg 54%
    02:00 +28°C° 0 mm 3 mps 733 mmHg 55%
    03:00 +27°C° 0 mm 4 mps 734 mmHg 57%
    04:00 +27°C° 0 mm 4 mps 734 mmHg 58%
    05:00 +26°C° 0 mm 4 mps 734 mmHg 60%
    06:00 +27°C° 0.1 mm 4 mps 735 mmHg 59%
    07:00 +28°C° 0.1 mm 4 mps 735 mmHg 57%
    08:00 +30°C° 0.1 mm 4 mps 736 mmHg 56%
    09:00 +32°C° 0.5 mm 5 mps 737 mmHg 53%
    10:00 +33°C° 0.5 mm 6 mps 738 mmHg 51%
    11:00 +34°C° 0.5 mm 6 mps 739 mmHg 48%
    12:00 +33°C° 1.1 mm 7 mps 739 mmHg 54%
    13:00 +30°C° 1.1 mm 7 mps 739 mmHg 60%
    14:00 +29°C° 1.1 mm 7 mps 739 mmHg 66%
    15:00 +30°C° 0 mm 7 mps 739 mmHg 59%
    16:00 +32°C° 0 mm 7 mps 738 mmHg 52%
    17:00 +34°C° 0 mm 7 mps 738 mmHg 44%
    18:00 +32°C° 0 mm 5 mps 738 mmHg 47%
    19:00 +29°C° 0 mm 4 mps 739 mmHg 50%
    20:00 +28°C° 0 mm 2 mps 739 mmHg 53%
    21:00 +27°C° 0 mm 2 mps 740 mmHg 55%
    22:00 +26°C° 0 mm 2 mps 741 mmHg 57%
    23:00 +25°C° 0 mm 2 mps 742 mmHg 59%

    30 January, Thursday

    Time Temperature Precipitation Wind Pressure Humidity
    00:00 +24°C° 0 mm 1 mps 742 mmHg 62%
    01:00 +23°C° 0 mm 1 mps 741 mmHg 64%
    02:00 +23°C° 0 mm 1 mps 741 mmHg 67%
    03:00 +23°C° 0 mm 1 mps 741 mmHg 64%
    04:00 +24°C° 0 mm 2 mps 742 mmHg 62%
    05:00 +25°C° 0 mm 3 mps 742 mmHg 60%
    06:00 +26°C° 0 mm 3 mps 742 mmHg 56%
    07:00 +27°C° 0 mm 3 mps 743 mmHg 51%
    08:00 +29°C° 0 mm 2 mps 743 mmHg 47%
    09:00 +31°C° 0 mm 2 mps 743 mmHg 41%
    10:00 +32°C° 0 mm 2 mps 743 mmHg 35%
    11:00 +35°C° 0 mm 2 mps 743 mmHg 29%
    12:00 +36°C° 0 mm 3 mps 742 mmHg 26%
    13:00 +37°C° 0 mm 3 mps 741 mmHg 23%
    14:00 +38°C° 0 mm 3 mps 741 mmHg 20%
    15:00 +38°C° 0 mm 3 mps 740 mmHg 20%
    16:00 +38°C° 0 mm 3 mps 740 mmHg 20%
    17:00 +38°C° 0 mm 3 mps 739 mmHg 20%
    18:00 +36°C° 0 mm 3 mps 739 mmHg 22%
    19:00 +33°C° 0 mm 4 mps 739 mmHg 25%
    20:00 +30°C° 0 mm 4 mps 740 mmHg 28%
    21:00 +29°C° 0 mm 4 mps 740 mmHg 29%
    22:00 +28°C° 0 mm 3 mps 740 mmHg 31%
    23:00 +27°C° 0 mm 3 mps 741 mmHg 32%
    Show more